| time (UTC) | temp C | wind direction | speed KPH | gust KPH | rain 1hr cm | rain 24hr cm | rain mn cm | humidity % | barometer mb |
| 20260504044528 | 11 | 0 | 0.0 | 1.6 | 0.00 | 0.00 | 0.00 | 65 | 1016.6 |
| 20260504043030 | 11 | 0 | 0.0 | 0.0 | 0.00 | 0.00 | 0.00 | 65 | 1016.9 |
| 20260504041534 | 12 | 0 | 0.0 | 1.6 | 0.00 | 0.00 | 0.00 | 63 | 1016.9 |
| 20260504040030 | 12 | 0 | 0.0 | 0.0 | 0.00 | 0.00 | 0.00 | 63 | 1017.1 |
| 20260504034539 | 12 | 0 | 0.0 | 0.0 | 0.00 | 0.00 | 0.00 | 62 | 1017.1 |
| 20260504033030 | 12 | 0 | 0.0 | 3.2 | 0.00 | 0.00 | 0.00 | 62 | 1017.0 |
| 20260504031528 | 12 | 0 | 0.0 | 3.2 | 0.00 | 0.00 | 0.00 | 61 | 1017.1 |
| 20260504030036 | 13 | 0 | 0.0 | 1.6 | 0.00 | 0.00 | 0.00 | 60 | 1016.7 |
| 20260504024530 | 13 | 0 | 0.0 | 1.6 | 0.00 | 0.00 | 0.00 | 59 | 1016.9 |
| 20260504023027 | 13 | 0 | 0.0 | 1.6 | 0.00 | 0.00 | 0.00 | 59 | 1016.9 |
| 20260504021537 | 14 | 0 | 0.0 | 0.0 | 0.00 | 0.00 | 0.00 | 57 | 1016.7 |
| 20260504020036 | 15 | 0 | 0.0 | 0.0 | 0.00 | 0.00 | 0.00 | 56 | 1016.6 |
| 20260504014527 | 15 | 0 | 0.0 | 0.0 | 0.00 | 0.00 | 0.00 | 54 | 1016.3 |
| 20260504013035 | 16 | 0 | 0.0 | 0.0 | 0.00 | 0.00 | 0.00 | 52 | 1016.2 |
| 20260504011530 | 16 | 0 | 0.0 | 0.0 | 0.00 | 0.00 | 0.00 | 50 | 1016.1 |
| 20260504010027 | 16 | 0 | 0.0 | 0.0 | 0.00 | 0.00 | 0.00 | 49 | 1016.1 |
| 20260504004541 | 17 | 0 | 0.0 | 0.0 | 0.00 | 0.00 | 0.00 | 48 | 1016.0 |
| 20260504003028 | 18 | 0 | 0.0 | 0.0 | 0.00 | 0.00 | 0.00 | 45 | 1015.9 |
| 20260504001535 | 18 | 0 | 0.0 | 0.0 | 0.00 | 0.00 | 0.00 | 44 | 1015.7 |
| 20260504000029 | 19 | 0 | 0.0 | 1.6 | 0.00 | 0.00 | 0.00 | 43 | 1015.6 |
| 20260503234529 | 19 | 0 | 0.0 | 1.6 | 0.00 | 0.00 | 0.00 | 43 | 1015.6 |
| 20260503233029 | 20 | 0 | 0.0 | 3.2 | 0.00 | 0.00 | 0.00 | 42 | 1015.7 |
| 20260503231530 | 20 | 213 | 0.0 | 4.8 | 0.00 | 0.00 | 0.00 | 42 | 1015.6 |
| 20260503230028 | 20 | 242 | 1.6 | 8.0 | 0.00 | 0.00 | 0.00 | 42 | 1015.7 |
| 20260503224528 | 20 | 195 | 3.2 | 14.5 | 0.00 | 0.00 | 0.00 | 41 | 1015.7 |
| 20260503223028 | 20 | 218 | 1.6 | 12.9 | 0.00 | 0.00 | 0.00 | 42 | 1015.8 |
| 20260503221532 | 20 | 0 | 3.2 | 20.9 | 0.00 | 0.00 | 0.00 | 42 | 1015.8 |
| 20260503220034 | 20 | 167 | 1.6 | 16.1 | 0.00 | 0.00 | 0.00 | 42 | 1015.9 |
| 20260503214541 | 20 | 215 | 3.2 | 16.1 | 0.00 | 0.00 | 0.00 | 43 | 1016.1 |
| 20260503213033 | 20 | 0 | 0.0 | 14.5 | 0.00 | 0.00 | 0.00 | 42 | 1016.2 |
| 20260503211528 | 20 | 0 | 1.6 | 16.1 | 0.00 | 0.00 | 0.00 | 44 | 1016.3 |
| 20260503210027 | 19 | 0 | 0.0 | 6.4 | 0.00 | 0.00 | 0.00 | 44 | 1016.3 |
| 20260503204530 | 20 | 217 | 1.6 | 11.3 | 0.00 | 0.00 | 0.00 | 43 | 1016.5 |
| 20260503203029 | 20 | 0 | 8.0 | 22.5 | 0.00 | 0.00 | 0.00 | 41 | 1016.8 |
| 20260503201534 | 20 | 290 | 8.0 | 22.5 | 0.00 | 0.00 | 0.00 | 39 | 1017.0 |
| 20260503200028 | 20 | 224 | 1.6 | 11.3 | 0.00 | 0.00 | 0.00 | 42 | 1017.3 |
| 20260503194534 | 20 | 0 | 0.0 | 11.3 | 0.00 | 0.00 | 0.00 | 43 | 1017.5 |
| 20260503193030 | 19 | 311 | 1.6 | 17.7 | 0.00 | 0.00 | 0.00 | 43 | 1017.7 |
| 20260503191527 | 19 | 217 | 4.8 | 25.7 | 0.00 | 0.00 | 0.00 | 42 | 1018.1 |
| 20260503190038 | 19 | 286 | 3.2 | 14.5 | 0.00 | 0.00 | 0.00 | 40 | 1018.1 |
| 20260503184530 | 18 | 295 | 3.2 | 20.9 | 0.00 | 0.00 | 0.00 | 40 | 1018.3 |
| 20260503183036 | 18 | 238 | 4.8 | 22.5 | 0.00 | 0.00 | 0.00 | 41 | 1018.5 |
| 20260503181549 | 18 | 171 | 3.2 | 11.3 | 0.00 | 0.00 | 0.00 | 42 | 1018.5 |
| 20260503180041 | 18 | 233 | 4.8 | 20.9 | 0.00 | 0.00 | 0.00 | 43 | 1018.6 |
| 20260503174529 | 18 | 238 | 6.4 | 14.5 | 0.00 | 0.00 | 0.00 | 44 | 1018.7 |
| 20260503173027 | 17 | 336 | 1.6 | 19.3 | 0.00 | 0.00 | 0.00 | 43 | 1018.9 |
| 20260503171530 | 17 | 266 | 8.0 | 17.7 | 0.00 | 0.00 | 0.00 | 41 | 1019.3 |
| 20260503081529 | 5 | 0 | 0.0 | 0.0 | 0.00 | 0.03 | 0.00 | 85 | 1017.3 |
| 20260503071527 | 6 | 0 | 0.0 | 0.0 | 0.00 | 0.03 | 0.00 | 82 | 1016.6 |